SPOT 6

Satellite information

Favourite Embed

Satellite Type and Status

PAYLOADIN ORBIT

Key statistics

Satellite SPOT 6 at a glance.

Uptime

4844

Days in orbit

Revolutions

≈ 14.6

Per day

Orbit

SSO

Sun Synchronous Orbit

Inclination

98.2

Latest

Satellite identification and parameters

Extended collection of information and parameters for SPOT 6.

Object identification

Identified? True

Debris? False

Object name: SPOT 6

International designator: 2012-047A

Object number (NORAD): 38755

Object ID (CCSDS): 38755

Country: FRANCE (FR)

Current information (Y/N): Y

RCS size: LARGE

Orbital parameters

Period: 98.725 minutes

Inclination: 98.1567 deg

SMA: 7075.825 km

Apoapsis: 698.462 km

Periapsis: 696.918 km

RAAN: 51.1182 deg

Eccentricy: 0.0001091

Argument of periapsis: 96.834 deg

Mean anomaly: 263.2983 deg

Mean motion: 14.58603168 rev/day

Mean motion (dot): 0.00000823 rev/day2

B* drag term: 0.00018656168 1/REarth

Two-line elements (TLE)

Creation date: Dec. 12, 2025, 10:14 a.m.

Reference frame: TEME

Reference center: EARTH

Epoch: Dec. 12, 2025, 7:50 a.m. UTC

TLE line 0: 0 SPOT 6

TLE line 1: 1 38755U 12047A 25346.32654110 .00000823 00000-0 18656-3 0 9996

TLE line 2: 2 38755 98.1567 51.1182 0001091 96.8340 263.2983 14.58603168705811

Live tracking on map

Real-time ground track for satellite SPOT 6.

In-orbit conjunctions

There are no conjunctions computed for SPOT 6, at the moment. Check back to stay up to date, as we update our databases every day.

Go to all conjunctions

Associated space launch

SPOT 6 was lifted into orbit during the mission ‘PSLV-CA | SPOT 6 & PROITERES’, on board a PSLV space rocket.

The launch took place on Sept. 9, 2012, 4:23 a.m. from Satish Dhawan Space Centre First Launch Pad.

For more information about the launch, click the button.

Launch to space PSLV-CA | SPOT 6 & PROITERES
PSLV-CA | SPOT 6 & PROITERES

Agency: N/A

Status: Launch Successful

Launch date: Sept. 9, 2012, 4:23 a.m. UTC

Rocket: PSLV

Launch pad: Satish Dhawan Space Centre First Launch Pad

Location: Satish Dhawan Space Centre, India

...

Latest news about this satellite

There are no fresh news available about this satellite. Check back as we update our databases every day.


Newsletter sign-up

Weekly statistics, charts and insights to help you stay on top of the space industry.